Volver al catálogo

FENGYUN 1C DEB

ActivoSSO
NORAD 29777·DEBRIS·🇨🇳 China

Lanzado May 10, 1999 desde Taiyuan Satellite Launch Center

Loading…

Próximos Pases (próximas 24 horas)

TLE

ActualizadoSource: Space-Track

Época: Sep 14, 2026, 10:15 UTC

1 29777U 99025BT  26257.42748414 -.00000044  00000-0  64856-6 0  9997
2 29777  99.2466 319.0781 0092979 183.9220 189.3686 13.92192489998779

Sigue FENGYUN 1C DEB en tiempo real con AllMySat

Download on the App Store